Voltar ao catálogo

STARLINK-30384

AtivoComunicaçõesVLEO
NORAD 57774·PAYLOAD·🇺🇸 United States

Lançado Sep 4, 2023 de Cape Canaveral Space Force Station

Loading…

Próximas Passagens (próximas 24 horas)

TLE

AtualizadoSource: CelesTrak SupGP

Época: Sep 15, 2026, 02:31 UTC

1 57774C 23134D   26258.10534722 -.00002214  00000+0 -80201-4 0  2583
2 57774  43.0003 207.9096 0001309 270.8217 271.8003 15.27573313    14

Acompanhe STARLINK-30384 em tempo real com AllMySat

Download on the App Store